Location: *
(50.9167°S, 179.4000°W)
Time: 20:01:48
(UTC+00:00)

Lacrosse 5 - Pass Details

Date: 03 March 2024
Orbit: 714 x 724 km, 57.0° (Epoch: 09 March)

Event Time Altitude Azimuth Distance (km) Brightness Sun altitude
Exits shadow 15:44:50 26° 284° (WNW) 1,400 2.8 -16.4°
Maximum altitude 15:47:41 70° 206° (SSW) 780 2.0 -16.0°
Drops below altitude 10° 15:52:51 10° 121° (ESE) 2,237 5.8 -15.3°
Sets 15:55:16 0° 119° (ESE) 3,162 7.1 -15.0°
